When you browse on this site, cookies collect data to enhance your experience and personalize the content and advertising you see.
Visit our Privacy Policy to learn more. By continuing to use the site, you agree to this use of cookies and data.

Tiempo cada hora Ternopil

Hoy, 9 Julio, Jueves

Tiempo Temperatura Precipitaciones Viento Presión Humedad
00:00 +14°C° 0 mm 2 mps 735 mmHg 82%
01:00 +14°C° 0 mm 2 mps 735 mmHg 83%
02:00 +13°C° 0 mm 3 mps 735 mmHg 83%
03:00 +14°C° 0.4 mm 2 mps 735 mmHg 87%
04:00 +13°C° 0.4 mm 2 mps 735 mmHg 91%
05:00 +13°C° 0.4 mm 1 mps 735 mmHg 95%
06:00 +14°C° 0.4 mm 1 mps 735 mmHg 95%
07:00 +14°C° 0.4 mm 2 mps 735 mmHg 95%
08:00 +14°C° 0 mm 2 mps 736 mmHg 95%
09:00 +15°C° 0.1 mm 2 mps 736 mmHg 92%
10:00 +15°C° 0.1 mm 2 mps 737 mmHg 89%
11:00 +16°C° 0.1 mm 2 mps 737 mmHg 86%
12:00 +17°C° 0.2 mm 2 mps 737 mmHg 82%
13:00 +18°C° 0.2 mm 2 mps 737 mmHg 77%
14:00 +19°C° 0 mm 2 mps 737 mmHg 73%
15:00 +19°C° 0.2 mm 2 mps 737 mmHg 74%
16:00 +19°C° 0.2 mm 2 mps 736 mmHg 74%
17:00 +20°C° 0.2 mm 1 mps 736 mmHg 75%
18:00 +19°C° 0 mm 1 mps 736 mmHg 79%
19:00 +18°C° 0 mm 1 mps 736 mmHg 82%
20:00 +16°C° 0 mm 1 mps 736 mmHg 86%
21:00 +16°C° 0 mm 2 mps 736 mmHg 88%
22:00 +15°C° 0 mm 2 mps 736 mmHg 90%
23:00 +15°C° 0 mm 2 mps 736 mmHg 92%

Mañana, 10 Julio, Viernes

Tiempo Temperatura Precipitaciones Viento Presión Humedad
00:00 +15°C° 0 mm 2 mps 736 mmHg 91%
01:00 +14°C° 0 mm 3 mps 736 mmHg 90%
02:00 +14°C° 0 mm 3 mps 736 mmHg 89%
03:00 +14°C° 0 mm 3 mps 736 mmHg 90%
04:00 +13°C° 0 mm 3 mps 736 mmHg 90%
05:00 +13°C° 0 mm 3 mps 735 mmHg 91%
06:00 +16°C° 0 mm 3 mps 736 mmHg 88%
07:00 +18°C° 0 mm 4 mps 736 mmHg 86%
08:00 +19°C° 0 mm 4 mps 736 mmHg 84%
09:00 +21°C° 0 mm 4 mps 736 mmHg 81%
10:00 +22°C° 0 mm 4 mps 736 mmHg 78%
11:00 +25°C° 0 mm 4 mps 736 mmHg 75%
12:00 +26°C° 0.3 mm 4 mps 736 mmHg 72%
13:00 +27°C° 0.3 mm 4 mps 735 mmHg 70%
14:00 +27°C° 0.3 mm 4 mps 735 mmHg 68%
15:00 +27°C° 0.1 mm 4 mps 735 mmHg 69%
16:00 +27°C° 0.1 mm 4 mps 735 mmHg 70%
17:00 +27°C° 0.1 mm 3 mps 735 mmHg 72%
18:00 +26°C° 0.2 mm 3 mps 735 mmHg 77%
19:00 +25°C° 0.2 mm 3 mps 735 mmHg 82%
20:00 +22°C° 0.2 mm 3 mps 735 mmHg 88%
21:00 +21°C° 0 mm 3 mps 735 mmHg 89%
22:00 +20°C° 0 mm 3 mps 735 mmHg 89%
23:00 +20°C° 0 mm 3 mps 735 mmHg 90%

Pasado mañana, 11 Julio, Sábado

Tiempo Temperatura Precipitaciones Viento Presión Humedad
00:00 +19°C° 0 mm 3 mps 735 mmHg 91%
01:00 +19°C° 0 mm 3 mps 735 mmHg 91%
02:00 +18°C° 0 mm 3 mps 734 mmHg 92%
03:00 +18°C° 0 mm 3 mps 734 mmHg 93%
04:00 +18°C° 0 mm 2 mps 734 mmHg 93%
05:00 +18°C° 0 mm 2 mps 734 mmHg 93%
06:00 +19°C° 0 mm 2 mps 735 mmHg 90%
07:00 +21°C° 0 mm 2 mps 735 mmHg 87%
08:00 +23°C° 0 mm 2 mps 735 mmHg 83%
09:00 +25°C° 0.1 mm 2 mps 735 mmHg 78%
10:00 +26°C° 0.1 mm 2 mps 735 mmHg 74%
11:00 +28°C° 0.1 mm 2 mps 735 mmHg 69%
12:00 +28°C° 0.4 mm 2 mps 735 mmHg 68%
13:00 +28°C° 0.4 mm 3 mps 735 mmHg 67%
14:00 +29°C° 0.4 mm 3 mps 734 mmHg 66%
15:00 +28°C° 0.2 mm 3 mps 734 mmHg 69%
16:00 +28°C° 0.2 mm 4 mps 734 mmHg 72%
17:00 +27°C° 0.2 mm 4 mps 734 mmHg 76%
18:00 +26°C° 0.5 mm 4 mps 734 mmHg 79%
19:00 +25°C° 0.5 mm 3 mps 734 mmHg 82%
20:00 +23°C° 0.5 mm 2 mps 734 mmHg 85%
21:00 +21°C° 0.1 mm 2 mps 734 mmHg 87%
22:00 +20°C° 0.1 mm 2 mps 734 mmHg 89%
23:00 +19°C° 0.1 mm 2 mps 735 mmHg 91%

12 Julio, Domingo

Tiempo Temperatura Precipitaciones Viento Presión Humedad
00:00 +19°C° 0.2 mm 3 mps 735 mmHg 93%
01:00 +19°C° 0.2 mm 3 mps 735 mmHg 94%
02:00 +18°C° 0.2 mm 4 mps 735 mmHg 96%
03:00 +18°C° 0 mm 4 mps 734 mmHg 96%
04:00 +17°C° 0 mm 4 mps 734 mmHg 96%
05:00 +17°C° 0 mm 4 mps 734 mmHg 96%
06:00 +17°C° 0.1 mm 4 mps 734 mmHg 96%
07:00 +15°C° 0.1 mm 4 mps 735 mmHg 95%
08:00 +15°C° 0.1 mm 5 mps 735 mmHg 95%
09:00 +15°C° 0.2 mm 5 mps 735 mmHg 95%
10:00 +15°C° 0.2 mm 5 mps 735 mmHg 95%
11:00 +15°C° 0.2 mm 5 mps 735 mmHg 94%
12:00 +15°C° 0.1 mm 5 mps 735 mmHg 94%
13:00 +14°C° 0.1 mm 6 mps 735 mmHg 94%
14:00 +13°C° 0.1 mm 6 mps 735 mmHg 94%
15:00 +12°C° 0 mm 7 mps 735 mmHg 93%
16:00 +11°C° 0 mm 7 mps 735 mmHg 92%
17:00 +11°C° 0 mm 8 mps 735 mmHg 91%
18:00 +10°C° 1.5 mm 8 mps 736 mmHg 92%
19:00 +10°C° 1.5 mm 7 mps 736 mmHg 94%
20:00 +9°C° 1.5 mm 7 mps 736 mmHg 95%
21:00 +9°C° 1 mm 7 mps 736 mmHg 95%
22:00 +9°C° 1 mm 7 mps 737 mmHg 94%
23:00 +9°C° 1 mm 7 mps 737 mmHg 94%

13 Julio, Lunes

Tiempo Temperatura Precipitaciones Viento Presión Humedad
00:00 +9°C° 0.2 mm 7 mps 737 mmHg 94%
01:00 +9°C° 0.2 mm 6 mps 737 mmHg 93%
02:00 +9°C° 0.2 mm 6 mps 736 mmHg 93%
03:00 +9°C° 0 mm 6 mps 736 mmHg 93%
04:00 +9°C° 0 mm 5 mps 736 mmHg 94%
05:00 +9°C° 0 mm 5 mps 736 mmHg 94%
06:00 +10°C° 0 mm 5 mps 736 mmHg 93%
07:00 +10°C° 0 mm 5 mps 736 mmHg 93%
08:00 +11°C° 0 mm 4 mps 736 mmHg 92%
09:00 +13°C° 0.2 mm 5 mps 736 mmHg 89%
10:00 +14°C° 0.2 mm 5 mps 736 mmHg 85%
11:00 +15°C° 0.2 mm 6 mps 736 mmHg 82%
12:00 +15°C° 0.1 mm 6 mps 736 mmHg 77%
13:00 +16°C° 0.1 mm 6 mps 736 mmHg 73%
14:00 +17°C° 0.1 mm 6 mps 736 mmHg 68%
15:00 +17°C° 0.2 mm 6 mps 736 mmHg 71%
16:00 +17°C° 0.2 mm 6 mps 735 mmHg 73%
17:00 +17°C° 0.2 mm 5 mps 735 mmHg 75%
18:00 +15°C° 0.1 mm 5 mps 735 mmHg 80%
19:00 +14°C° 0.1 mm 4 mps 735 mmHg 84%
20:00 +13°C° 0.1 mm 4 mps 735 mmHg 89%
21:00 +12°C° 0 mm 3 mps 735 mmHg 91%
22:00 +12°C° 0 mm 3 mps 735 mmHg 92%
23:00 +11°C° 0 mm 3 mps 735 mmHg 94%

14 Julio, Martes

Tiempo Temperatura Precipitaciones Viento Presión Humedad
00:00 +10°C° 0 mm 3 mps 735 mmHg 94%
01:00 +10°C° 0 mm 3 mps 735 mmHg 94%
02:00 +9°C° 0 mm 3 mps 734 mmHg 94%
03:00 +8°C° 0 mm 4 mps 734 mmHg 94%
04:00 +8°C° 0 mm 4 mps 734 mmHg 95%
05:00 +8°C° 0 mm 4 mps 734 mmHg 95%
06:00 +11°C° 0 mm 4 mps 734 mmHg 92%
07:00 +12°C° 0 mm 5 mps 734 mmHg 90%
08:00 +14°C° 0 mm 5 mps 734 mmHg 88%
09:00 +15°C° 0.1 mm 5 mps 734 mmHg 82%
10:00 +16°C° 0.1 mm 5 mps 734 mmHg 77%
11:00 +19°C° 0.1 mm 5 mps 734 mmHg 71%
12:00 +19°C° 0.3 mm 5 mps 734 mmHg 72%
13:00 +19°C° 0.3 mm 5 mps 734 mmHg 72%
14:00 +20°C° 0.3 mm 5 mps 734 mmHg 73%
15:00 +20°C° 0.1 mm 5 mps 733 mmHg 73%
16:00 +20°C° 0.1 mm 5 mps 733 mmHg 73%
17:00 +20°C° 0.1 mm 5 mps 733 mmHg 73%
18:00 +18°C° 0 mm 4 mps 733 mmHg 79%
19:00 +17°C° 0 mm 3 mps 733 mmHg 84%
20:00 +16°C° 0 mm 3 mps 734 mmHg 90%
21:00 +14°C° 0 mm 3 mps 734 mmHg 91%
22:00 +14°C° 0 mm 2 mps 734 mmHg 92%
23:00 +14°C° 0 mm 2 mps 734 mmHg 93%
Mostrar más